Back to catalog

FAST

AliveSciencePO
NORAD 24285·PAYLOAD·🇺🇸 United States

Launched Aug 21, 1996 from Vandenberg Space Force Base

Loading…

Next Passes (next 24 hours)

TLE

FreshSource: Space-Track

Epoch: Sep 14, 2026, 04:30 UTC

1 24285U 96049A   26257.18780251  .00002412  00000-0  18634-3 0  9997
2 24285  82.9583 353.0167 1730990 282.6623  58.7104 11.83771405243192

Track FAST in real time with AllMySat

Download on the App Store